Regional Weather Roundup
Issued by NWS

Home | Current Version | Previous Version | Text Only | Print | Product List | Glossary On
Versions: 1 2 3 4 5 6 7 8 9 10 11 12 13 14 15 16 17 18 19 20 21 22 23 24 25 26 27 28 29 30 31 32 33 34 35 36 37 38 39 40 41 42 43 44 45 46 47 48 49 50
000
ASUS46 KPQR 182310
RWROR

OREGON REGIONAL WEATHER ROUNDUP
NATIONAL WEATHER SERVICE PORTLAND OR
400 PM PDT THU SEP 18 2014

NOTE: "FAIR" INDICATES FEW OR NO CLOUDS BELOW 12,000 FEET WITH
NO SIGNIFICANT WEATHER AND/OR OBSTRUCTIONS TO VISIBILITY.

ORZ001>013-190000-
NORTHWEST OREGON


CITY           SKY/WX    TMP DP  RH WIND       PRES   REMARKS
ASTORIA        CLOUDY    66  59  78 SW10      29.89S
NEWPORT        MOSUNNY   64  59  82 NW8       29.93S
PORTLAND       CLOUDY    71  58  63 NE3       29.88S
VANCOUVER WA   CLOUDY    70  57  63 S3        29.88R
SCAPPOOSE      CLOUDY    71  58  63 SE5       29.88R
HILLSBORO      CLOUDY    72  56  57 E6        29.87S
AURORA         CLOUDY    71  57  61 SE3       29.89S
MCMINNVILLE    PTSUNNY   74  57  55 E5        29.88S
SALEM          PTSUNNY   74  55  51 E5        29.87S
CORVALLIS      CLOUDY    75  55  50 SE3       29.90S
EUGENE         PTSUNNY   76  55  48 CALM      29.89R
$$

ORZ021-028-190000-
SOUTHWEST OREGON


CITY           SKY/WX    TMP DP  RH WIND       PRES   REMARKS
NORTH BEND     CLOUDY    70  59  68 NW9       29.91R
BROOKINGS      CLEAR     77  61  57 NW6       29.88S
ROSEBURG       PTSUNNY   77  59  53 E5        29.86F
SEXTON SUMMIT  PTSUNNY   67  57  70 CALM      29.96S
MEDFORD        MOSUNNY   83  51  33 W10       29.82F
$$

ORZ009-041-190000-
COLUMBIA GORGE


CITY           SKY/WX    TMP DP  RH WIND       PRES   REMARKS
TROUTDALE      CLOUDY    72  57  59 CALM      29.87R
THE DALLES     MOSUNNY   76  53  44 NW17      29.82R
$$

ORZ029>031-042>050-061>064-190000-
EASTERN OREGON


CITY           SKY/WX    TMP DP  RH WIND       PRES   REMARKS
REDMOND        PTSUNNY   72  47  40 W12G21    29.89R
BEND           MOCLDY    72  48  43 W13G18    29.92S
KLAMATH FALLS  MOSUNNY   72  45  37 MISG      29.92S
LAKEVIEW       MOSUNNY   73  37  27 W8        29.96S
HERMISTON      MOSUNNY   80  52  37 W20G28    29.75R
PENDLETON      CLOUDY    77  49  37 W21       29.78R
JOHN DAY       MOCLDY    77  43  29 W17G23    29.86R
MEACHAM        CLOUDY    69  43  38 VRB6      29.89R
LA GRANDE      CLOUDY    79  39  24 NW15      29.80R
BAKER CITY     MOSUNNY   78  43  28 NW5       29.81R
BURNS          MOSUNNY   78  41  26 SW15      29.87S
ROME             N/A     84  35  17 SW20G26   29.82R
ONTARIO        PTSUNNY   86  40  19 SE8       29.74F
$$


USA.gov is the U.S. government's official web portal to all federal, state and local government web resources and services.